User: anonymous   Login
Location: Unspecified
(0.0000°N, 0.0000°E)
Time: 22:26:44
(UTC+00:00)
Language:

DX 1 - Orbit

View from above orbital plane
View from above orbital plane
View from above satellite
View from above satellite

Ground track
Ground track

The orbit data is extracted from the following two-line orbital elements,

1 40071U 14037C   19111.46128137  .00000129  00000-0  24058-4 0  9997
2 40071  98.4162 262.4027 0009665  57.5949 302.6210 14.81254309258637
Epoch (UTC): 21 April 2019 11:04:14
Eccentricity: 0.0009665
inclination: 98.4162°
perigee height: 618 km
apogee height: 632 km
right ascension of ascending node: 262.4027°
argument of perigee: 57.5949°
revolutions per day: 14.81254309
mean anomaly at epoch: 302.6210°
orbit number at epoch: 25863

The dashed part of the orbit path shows where the satellite is in the earth's shadow,  

DLR